Location: New Frontier Mobile Home Park
(32.8448°N, 116.9675°W)
Time: 23:09:06
(UTC+00:00)

CZ-4C R/B - Pass Details

Date: 14 July 2020
Orbit: 409 x 492 km, 97.7° (Epoch: 05 August)

Event Time Altitude Azimuth Distance (km) Brightness Sun altitude
Exits shadow 11:42:56 13° 188° (S) 1,326 4.9 -12.9°
Maximum altitude 11:45:35 46° 260° (W) 578 3.0 -12.4°
Drops below altitude 10° 11:48:41 10° 335° (NNW) 1,499 5.7 -11.9°
Sets 11:50:42 0° 342° (NNW) 2,357 6.8 -11.6°
